CAPE
14 26 56 164 218 296 495 699 986 1249 1319 397 3 0 0 0 0 0 0 0 0 0 0 0 0 0 0 0 0 0 0 7 2 1 4 0 0 1 0 0 0 0 0
16 28 52 305 718 790 871 1046 1200 1322 311 0 0 0 0 0 0 0 0 0 0 0 0 0 0 0 0 0 0 0 0 3 5 4 2 0 2 0 0 0 0 0 0
32 130 434 566 862 1042 1098 1191 1203 329 0 0 0 0 0 0 0 0 0 0 0 0 0 0 0 0 0 0 0 0 0 0 4 7 4 0 0 0 0 0 0 0 0
446 623 794 843 954 1074 1108 1319 587 14 0 0 0 0 0 0 0 0 0 0 0 1 0 0 0 0 0 0 0 0 0 0 0 0 0 0 0 0 1 2 0 0 0
709 840 931 1000 993 1020 1184 341 5 0 0 0 0 0 0 0 0 0 0 0 0 0 0 0 0 0 0 0 0 0 0 0 0 0 0 0 0 0 0 0 0 0 0
720 847 909 907 1140 1041 218 14 0 0 0 0 0 0 0 0 0 0 0 0 0 0 0 0 0 0 0 0 0 0 0 0 0 0 0 0 0 0 0 0 2 0 0
740 881 989 1112 994 424 24 0 0 0 0 0 0 0 0 0 0 0 0 0 0 0 0 0 0 0 0 0 0 0 0 0 0 0 0 0 0 0 1 0 0 0 0
838 1031 1154 980 528 11 0 0 0 0 0 0 0 0 0 0 0 0 0 0 0 0 0 0 0 0 0 0 0 0 0 0 0 0 0 0 0 0 0 0 0 1 0
1075 1195 1026 712 59 0 0 0 0 0 0 0 0 0 0 0 0 0 0 0 0 0 0 0 0 0 0 0 0 0 0 0 0 0 0 0 0 0 0 0 0 0 0
1154 1123 826 255 0 0 0 0 0 0 0 0 0 0 0 0 0 0 0 0 0 0 0 0 0 0 0 0 0 0 0 0 0 0 0 0 0 0 0 0 0 0 0
914 663 211 52 0 0 0 0 0 0 0 0 0 0 0 0 0 0 0 0 0 0 0 0 0 0 0 0 0 0 0 0 0 0 0 0 0 0 0 0 0 0 0
227 62 13 0 0 0 0 0 0 0 0 0 0 0 0 0 0 0 0 0 0 0 0 0 0 0 0 0 0 0 0 0 0 0 0 0 0 0 0 0 0 0 0
4 0 0 0 0 0 0 0 0 0 1 0 0 0 0 0 0 0 0 0 0 0 0 0 0 0 0 0 0 0 0 0 0 0 0 0 0 0 0 0 0 0 0
0 0 0 0 0 0 0 0 0 1 1 1 0 0 0 0 0 0 0 0 0 0 0 0 0 0 0 0 0 0 0 0 0 0 0 0 0 0 0 0 0 0 0
0 0 0 0 0 0 0 0 0 0 0 0 0 0 0 0 0 0 0 0 0 0 0 0 0 0 0 0 0 0 0 0 0 0 0 0 0 0 0 0 0 0 0
0 0 0 0 0 0 0 0 0 0 0 0 0 0 0 0 0 0 0 0 0 0 0 0 0 0 0 0 0 0 0 0 0 0 0 0 0 0 0 0 0 0 0
0 0 0 0 0 0 0 0 0 0 0 0 0 0 0 0 0 0 0 0 0 0 0 0 0 0 0 0 0 0 0 0 0 0 0 0 0 0 0 0 0 0 0
0 0 0 0 0 0 0 0 0 0 0 0 0 0 0 0 0 0 0 0 0 0 0 0 0 0 0 0 0 0 0 0 0 0 0 0 0 0 0 0 0 0 0
0 0 0 0 0 0 0 0 0 0 0 0 0 0 0 0 0 0 0 0 0 0 0 0 0 0 0 0 0 0 0 0 0 0 0 0 0 0 0 0 0 0 0
0 0 0 0 0 0 0 0 0 0 0 0 0 0 0 0 0 0 0 0 0 0 0 0 0 0 0 0 0 0 0 0 0 0 0 0 0 0 0 0 0 0 0
0 0 0 0 0 0 0 0 0 0 0 0 0 0 0 0 0 0 0 0 0 0 0 0 0 0 0 0 0 0 0 0 0 0 0 0 0 0 0 0 0 0 0
0 0 0 0 0 0 0 0 0 0 0 0 0 0 0 0 0 0 0 0 0 0 0 0 0 0 0 0 0 0 0 0 0 0 0 0 0 0 0 0 0 0 2
0 0 0 0 0 0 0 0 0 0 0 0 0 0 0 0 0 0 0 0 0 0 0 0 0 0 0 0 0 0 0 0 0 0 0 0 0 0 0 0 0 2 3
0 0 0 0 0 0 0 0 0 0 0 0 0 0 0 0 0 0 0 0 0 0 0 0 0 0 0 0 0 0 0 0 0 0 0 0 0 0 0 0 0 2 3
0 0 0 0 0 0 0 0 0 0 0 0 0 0 0 0 0 0 0 0 0 0 0 0 0 0 0 0 0 0 0 0 0 0 0 0 0 0 0 0 0 0 0
0 0 0 0 0 0 0 0 0 0 0 0 0 0 0 0 0 0 0 0 0 0 0 0 0 0 0 0 0 0 0 0 0 0 0 0 0 0 0 0 0 0 0
CIN
-828 -794 -780 -706 -673 -624 -533 -456 -334 -243 -205 -481 -224 -0 -0 -0 -0 -0 -0 -0 -0 -0 -0 -0 -0 -0 -0 -0 -0 -0 -0 -0 -0 -0 -0 -0 -0 -0 -0 -0 -0 -0 -0
-849 -854 -832 -688 -538 -500 -463 -380 -307 -234 -555 -62 -0 -0 -0 -0 -0 -0 -0 -0 -0 -0 -0 -0 -0 -0 -0 -0 -0 -0 -0 -0 -0 -0 -0 -0 -0 -0 -0 -0 -0 -0 -0
-862 -808 -675 -621 -515 -472 -424 -360 -308 -577 -0 -0 -0 -0 -0 -0 -0 -0 -0 -0 -0 -0 -0 -0 -0 -0 -0 -0 -0 -0 -0 -0 -0 -0 -0 -0 -0 -0 -0 -0 -0 -0 -0
-737 -659 -592 -564 -534 -470 -411 -304 -484 -232 -0 -0 -0 -0 -0 -0 -0 -0 -0 -0 -0 -0 -0 -0 -0 -0 -0 -0 -0 -0 -0 -0 -0 -0 -0 -0 -0 -0 -0 -0 -0 -0 -0
-707 -637 -597 -565 -527 -472 -364 -602 -190 -0 -0 -0 -0 -0 -0 -0 -0 -0 -0 -0 -0 -0 -0 -0 -0 -0 -0 -0 -0 -0 -0 -0 -0 -0 -0 -0 -0 -0 -0 -0 -0 -0 -0
-737 -670 -623 -589 -483 -454 -703 -1019 -0 -0 -0 -0 -0 -0 -0 -0 -0 -0 -0 -0 -0 -0 -0 -0 -0 -0 -0 -0 -0 -0 -0 -0 -0 -0 -0 -0 -0 -0 -0 -0 -0 -0 -0
-797 -717 -650 -566 -539 -664 -1001 -0 -0 -0 -0 -0 -0 -0 -0 -0 -0 -0 -0 -0 -0 -0 -0 -0 -0 -0 -0 -0 -0 -0 -0 -0 -0 -0 -0 -0 -0 -0 -0 -0 -0 -0 -0
-794 -715 -638 -643 -729 -836 -0 -0 -0 -0 -0 -0 -0 -0 -0 -0 -0 -0 -0 -0 -0 -0 -0 -0 -0 -0 -0 -0 -0 -0 -0 -0 -0 -0 -0 -0 -0 -0 -0 -0 -0 -0 -0
-790 -729 -725 -750 -1036 -0 -0 -0 -0 -0 -0 -0 -0 -0 -0 -0 -0 -0 -0 -0 -0 -0 -0 -0 -0 -0 -0 -0 -0 -0 -0 -0 -0 -0 -0 -0 -0 -0 -0 -0 -0 -0 -0
-817 -770 -778 -935 -0 -0 -0 -0 -0 -0 -0 -0 -0 -0 -0 -0 -0 -0 -0 -0 -0 -0 -0 -0 -0 -0 -0 -0 -0 -0 -0 -0 -0 -0 -0 -0 -0 -0 -0 -0 -0 -0 -0
-832 -849 -983 -1048 -0 -0 -0 -0 -0 -0 -0 -0 -0 -0 -0 -0 -0 -0 -0 -0 -0 -0 -0 -0 -0 -0 -0 -0 -0 -0 -0 -0 -0 -0 -0 -0 -0 -0 -0 -0 -0 -0 -0
-1047 -1111 -1144 -57 -0 -0 -0 -0 -0 -0 -0 -0 -0 -0 -0 -0 -0 -0 -0 -0 -0 -0 -0 -0 -0 -0 -0 -0 -0 -0 -0 -0 -0 -0 -0 -0 -0 -0 -0 -0 -0 -0 -0
-1188 -0 -0 -0 -0 -0 -0 -0 -0 -0 -0 -0 -0 -0 -0 -0 -0 -0 -0 -0 -0 -0 -0 -0 -0 -0 -0 -0 -0 -0 -0 -0 -0 -0 -0 -0 -0 -0 -0 -0 -0 -0 -0
-0 -0 -0 -0 -0 -0 -0 -0 -0 -0 -0 -0 -0 -0 -0 -0 -0 -0 -0 -0 -0 -0 -0 -0 -0 -0 -0 -0 -0 -0 -0 -0 -0 -0 -0 -0 -0 -0 -0 -0 -0 -0 -0
-0 -0 -0 -0 -0 -0 -0 -0 -0 -0 -0 -0 -0 -0 -0 -0 -0 -0 -0 -0 -0 -0 -0 -0 -0 -0 -0 -0 -0 -0 -0 -0 -0 -0 -0 -0 -0 -0 -0 -0 -0 -0 -0
-0 -0 -0 -0 -0 -0 -0 -0 -0 -0 -0 -0 -0 -0 -0 -0 -0 -0 -0 -0 -0 -0 -0 -0 -0 -0 -0 -0 -0 -0 -0 -0 -0 -0 -0 -0 -0 -0 -0 -0 -0 -0 -0
-0 -0 -0 -0 -0 -0 -0 -0 -0 -0 -0 -0 -0 -0 -0 -0 -0 -0 -0 -0 -0 -0 -0 -0 -0 -0 -0 -0 -0 -0 -0 -0 -0 -0 -0 -0 -0 -0 -0 -0 -0 -0 -0
-0 -0 -0 -0 -0 -0 -0 -0 -0 -0 -0 -0 -0 -0 -0 -0 -0 -0 -0 -0 -0 -0 -0 -0 -0 -0 -0 -0 -0 -0 -0 -0 -0 -0 -0 -0 -0 -0 -0 -0 -0 -0 -0
-0 -0 -0 -0 -0 -0 -0 -0 -0 -0 -0 -0 -0 -0 -0 -0 -0 -0 -0 -0 -0 -0 -0 -0 -0 -0 -0 -0 -0 -0 -0 -0 -0 -0 -0 -0 -0 -0 -0 -0 -0 -0 -0
-0 -0 -0 -0 -0 -0 -0 -0 -0 -0 -0 -0 -0 -0 -0 -0 -0 -0 -0 -0 -0 -0 -0 -0 -0 -0 -0 -0 -0 -0 -0 -0 -0 -0 -0 -0 -0 -0 -0 -0 -0 -0 -0
-0 -0 -0 -0 -0 -0 -0 -0 -0 -0 -0 -0 -0 -0 -0 -0 -0 -0 -0 -0 -0 -0 -0 -0 -0 -0 -0 -0 -0 -0 -0 -0 -0 -0 -0 -0 -0 -0 -0 -0 -0 -0 -0
-0 -0 -0 -0 -0 -0 -0 -0 -0 -0 -0 -0 -0 -0 -0 -0 -0 -0 -0 -0 -0 -0 -0 -0 -0 -0 -0 -0 -0 -0 -0 -0 -0 -0 -0 -0 -0 -0 -0 -0 -0 -0 -0
-0 -0 -0 -0 -0 -0 -0 -0 -0 -0 -0 -0 -0 -0 -0 -0 -0 -0 -0 -0 -0 -0 -0 -0 -0 -0 -0 -0 -0 -0 -0 -0 -0 -0 -0 -0 -0 -0 -0 -0 -0 -0 -0
-0 -0 -0 -0 -0 -0 -0 -0 -0 -0 -0 -0 -0 -0 -0 -0 -0 -0 -0 -0 -0 -0 -0 -0 -0 -0 -0 -0 -0 -0 -0 -0 -0 -0 -0 -0 -0 -0 -0 -0 -0 -0 -0
-0 -0 -0 -0 -0 -0 -0 -0 -0 -0 -0 -0 -0 -0 -0 -0 -0 -0 -0 -0 -0 -0 -0 -0 -0 -0 -0 -0 -0 -0 -0 -0 -0 -0 -0 -0 -0 -0 -0 -0 -0 -0 -0
-0 -0 -0 -0 -0 -0 -0 -0 -0 -0 -0 -0 -0 -0 -0 -0 -0 -0 -0 -0 -0 -0 -0 -0 -0 -0 -0 -0 -0 -0 -0 -0 -0 -0 -0 -0 -0 -0 -0 -0 -0 -0 -0
Wind_Speed
11 10 9 8 8 7 7 5 5 3 4 7 8 8 7 6 5 5 5 5 6 5 4 5 6 5 4 5 4 4 4 3 6 7 9 9 10 11 11 10 9 9 9
10 8 8 7 7 8 7 6 6 5 7 9 8 8 7 6 5 5 5 4 5 5 4 5 6 5 6 6 5 6 5 5 3 10 10 9 10 9 9 12 10 9 9
9 10 9 9 9 9 7 7 6 9 9 9 8 8 6 6 5 4 5 4 4 5 5 5 5 7 8 7 7 6 4 4 5 6 9 8 8 7 10 8 10 9 8
11 11 11 11 11 8 7 7 9 9 10 9 7 7 6 6 5 5 5 5 5 6 5 4 5 5 6 7 7 6 5 6 5 6 7 8 5 7 6 8 11 9 10
12 12 13 10 7 8 8 9 10 10 9 10 9 7 6 5 4 6 5 5 5 5 4 4 5 7 9 9 6 6 6 5 6 7 7 6 7 8 7 7 7 10 11
13 12 9 9 9 10 10 11 11 11 10 9 8 8 6 4 8 9 6 6 4 4 4 4 4 7 7 9 10 10 7 6 6 3 3 6 7 8 5 8 7 6 8
14 13 12 12 11 12 12 13 12 11 10 9 8 7 6 5 8 9 10 5 4 3 3 2 4 5 7 7 10 11 10 11 8 5 6 6 7 7 8 10 9 8 8
13 14 13 13 13 13 14 13 12 10 10 9 8 7 6 5 9 9 9 5 3 2 1 3 4 6 6 7 6 8 8 8 8 7 6 10 9 10 8 8 9 8 10
15 16 15 15 15 15 15 15 12 12 9 8 7 7 7 5 9 9 7 4 2 3 3 3 3 5 8 7 4 7 8 8 11 13 12 12 12 12 9 7 7 8 7
15 14 13 14 16 16 15 15 13 12 10 8 8 6 8 7 7 9 6 3 3 1 2 3 6 7 7 6 4 5 8 9 11 12 11 11 11 9 9 4 6 7 6
12 12 13 13 14 14 14 13 13 12 11 9 8 6 6 6 5 6 6 3 2 1 2 3 3 9 6 7 6 5 5 9 10 7 7 7 8 9 8 8 7 6 7
13 13 13 13 11 11 15 12 13 12 11 9 8 6 4 4 4 5 5 4 4 2 2 1 2 6 7 8 6 11 10 10 6 6 7 8 8 9 10 10 11 9 7
14 14 12 12 11 12 14 13 11 11 10 9 7 6 5 4 3 4 6 5 4 2 1 2 2 5 6 6 10 10 9 7 7 6 7 7 7 8 10 9 10 10 11
15 14 13 13 12 9 8 8 10 9 9 9 8 6 5 5 4 3 3 2 2 2 1 1 3 4 5 5 6 7 6 7 7 6 6 7 7 8 7 8 8 10 8
14 14 13 10 11 10 8 3 6 5 8 10 8 7 8 7 5 6 6 3 2 1 1 2 3 3 5 6 6 6 6 6 7 7 6 8 7 8 8 9 7 8 8
15 12 11 11 9 8 8 7 15 7 7 6 11 8 3 6 11 10 7 5 5 6 2 1 2 3 4 5 6 6 5 8 7 6 6 7 7 8 9 9 8 8 9
15 13 11 10 10 10 8 8 8 7 13 9 11 12 8 10 11 8 6 6 7 5 2 1 1 2 3 4 5 5 6 6 7 5 6 7 8 8 9 8 8 8 9
13 16 12 10 10 9 8 8 7 8 7 5 4 5 11 11 9 8 10 7 3 4 2 2 0 2 3 4 4 5 6 7 6 7 7 7 7 7 8 9 9 9 10
13 10 10 9 9 10 8 8 7 7 7 6 5 4 5 8 8 7 6 2 2 2 2 2 0 1 3 3 4 4 5 5 6 6 7 7 7 7 8 8 9 11 10
10 17 14 10 10 9 8 8 8 7 8 7 6 6 6 5 4 3 2 3 3 3 3 2 1 1 2 3 4 5 6 6 7 6 7 7 8 7 8 9 9 9 10
9 10 14 9 10 9 9 9 8 8 8 7 7 6 9 6 6 5 4 4 4 3 4 3 1 1 2 3 4 4 4 5 5 6 6 7 7 8 8 7 8 9 10
10 10 10 10 9 9 8 8 9 9 8 8 6 6 10 5 5 5 5 5 4 4 4 3 2 1 2 3 4 4 6 6 7 7 7 7 7 7 7 8 10 10 11
10 10 9 9 9 10 9 8 8 8 8 8 8 7 7 6 5 6 6 6 5 6 5 4 3 2 1 2 3 4 5 6 5 6 7 7 7 7 8 9 10 9 11
11 11 11 10 9 10 9 9 8 9 9 8 8 8 8 6 6 7 7 6 6 6 5 4 3 3 1 2 2 3 3 4 4 5 6 6 6 8 9 9 9 12 11
11 11 11 10 10 10 9 9 9 9 9 9 8 8 7 7 7 7 7 6 6 7 6 4 3 3 2 2 4 6 5 5 4 6 3 4 9 10 9 9 10 10 11
10 11 10 9 9 9 9 9 9 9 9 8 8 9 9 8 8 8 8 8 7 7 7 5 5 5 2 1 4 6 5 5 6 5 3 5 7 8 8 11 14 10 13
Wind_Direction
202 198 195 191 189 190 197 198 194 194 144 110 107 103 98 90 82 83 70 65 78 75 67 75 60 31 13 9 7 7 3 339 305 314 310 308 315 333 328 329 333 331 331
195 183 186 168 179 193 198 183 177 146 113 118 115 107 103 92 80 82 84 90 99 84 81 68 42 11 2 5 6 357 341 332 291 305 313 333 324 328 321 323 329 332 323
168 170 167 181 189 201 186 174 150 130 123 119 118 113 107 102 100 99 102 94 94 110 99 71 39 14 1 358 351 343 334 317 298 301 305 320 327 320 331 326 324 315 315
165 171 180 190 199 184 167 154 137 128 126 118 112 109 113 111 113 110 100 109 102 107 97 85 49 24 4 346 342 338 334 325 331 333 317 320 330 322 318 322 332 328 318
167 175 193 194 168 148 141 129 121 121 122 120 118 114 114 110 121 116 116 113 107 108 82 56 23 27 12 354 341 334 333 333 337 337 319 320 323 330 337 328 314 318 317
171 182 180 159 157 148 137 134 126 122 125 128 125 126 109 98 119 126 122 114 104 88 82 46 23 26 8 355 352 348 346 332 326 308 296 312 301 311 314 320 312 327 333
174 176 171 163 157 148 142 136 136 136 135 132 129 121 107 105 116 117 117 105 110 105 94 47 19 13 355 353 352 349 355 353 339 303 289 303 301 311 314 310 318 303 288
175 173 169 163 155 146 145 140 134 137 140 139 132 120 116 106 110 105 111 118 106 94 62 29 3 339 344 354 348 345 342 335 335 322 283 289 282 293 286 282 290 297 292
177 175 171 164 153 150 150 145 141 136 136 140 137 133 121 108 113 113 121 121 122 55 34 14 341 349 345 4 4 343 329 328 331 325 324 319 320 321 325 323 345 335 327
178 172 163 158 154 154 151 148 146 141 138 140 135 135 132 119 120 120 120 130 108 46 22 24 15 6 353 7 3 336 338 336 336 338 340 340 336 329 333 336 329 326 327
151 149 150 153 153 147 140 141 138 136 134 135 132 133 125 134 131 128 138 132 134 113 49 21 9 355 353 360 10 3 337 325 334 335 335 339 346 348 347 343 329 308 317
137 138 144 145 144 143 137 137 135 136 135 137 135 136 146 148 138 134 131 129 158 115 75 16 321 340 360 354 2 357 351 344 342 346 349 352 347 343 334 327 320 314 290
135 137 137 136 142 143 140 137 135 140 145 149 158 161 171 167 140 129 112 113 108 134 173 252 308 15 3 358 1 1 353 356 351 354 351 341 327 313 314 326 333 329 318
134 135 136 135 133 133 126 141 144 151 151 158 169 174 176 170 170 170 154 129 100 114 90 34 39 25 22 7 2 360 2 1 354 340 333 328 327 340 343 346 329 337 328
135 139 137 132 130 120 92 118 155 149 154 163 176 174 170 185 199 178 164 167 181 149 114 43 24 10 356 355 360 358 354 357 0 346 341 342 341 343 341 339 338 336 343
139 143 140 133 127 125 125 98 45 64 122 113 144 153 128 144 155 162 172 192 214 178 88 57 22 5 346 347 352 345 351 351 353 343 338 340 340 342 339 341 343 344 341
141 139 129 128 133 137 136 135 126 60 64 65 111 123 134 148 142 150 168 151 140 134 76 88 11 337 341 344 347 343 339 339 325 342 344 348 341 342 344 343 347 343 344
133 135 137 139 138 138 142 138 139 146 139 115 66 124 137 140 139 140 143 120 104 74 114 154 130 337 337 345 351 348 335 342 350 348 347 349 345 340 345 349 346 344 344
136 137 131 135 138 139 137 140 141 134 136 136 129 98 125 121 126 110 143 119 132 130 144 138 124 331 344 349 350 342 341 341 340 343 344 345 346 343 345 347 344 340 337
129 137 138 141 139 142 144 149 144 141 145 153 162 163 154 137 159 153 150 140 143 155 154 154 140 11 2 353 351 343 346 349 352 351 342 343 341 338 345 346 350 348 351
132 137 139 138 147 155 154 160 154 151 157 166 172 166 161 169 168 169 170 174 169 157 154 150 133 45 12 360 343 341 345 340 345 340 338 340 338 341 347 352 352 353 355
139 146 148 156 150 157 159 156 157 159 163 166 165 165 168 181 168 173 180 180 161 152 155 152 128 82 30 356 331 330 335 344 338 337 337 335 339 344 352 0 359 2 3
141 148 149 154 158 149 154 159 162 167 169 171 166 166 180 186 177 183 181 173 155 158 150 144 144 137 88 15 331 320 329 333 322 319 324 331 343 354 3 6 8 12 14
148 156 161 161 159 164 165 166 170 172 173 173 173 176 183 182 182 177 170 163 162 155 150 142 151 130 93 13 331 315 330 315 304 319 318 326 359 11 20 20 17 13 13
159 162 164 166 166 168 161 167 173 175 179 177 177 174 177 178 172 168 168 171 157 153 153 150 153 143 104 7 350 355 347 302 326 315 329 13 37 31 25 21 14 15 14
167 169 168 165 165 166 168 171 176 178 181 177 173 172 174 173 168 165 169 165 159 161 158 166 172 156 174 328 357 353 336 349 353 348 22 44 42 30 24 25 20 17 16